Weather History for Galax, VA

Change the Weather History Date:

Monday, March 25, 2013

  Actual Average (KBLF) Record (KBLF)
Temperature  
Mean Temperature 32 °F 48 °F  
Max Temperature 35 °F 57 °F 81 °F (2007)
Min Temperature 30 °F 39 °F 10 °F (1960)
Degree Days  
Heating Degree Days 32 17  
Month to date heating degree days 520  
Since 1 July heating degree days 4013  
Cooling Degree Days 0 0  
Month to date cooling degree days 0  
Year to date cooling degree days 0  
Moisture  
Dew Point 27 °F    
Average Humidity 80    
Maximum Humidity 100    
Minimum Humidity 56    
Precipitation  
Precipitation 0.01 in 0.12 in 0.85 in (1978)
Month to date precipitation 2.83  
Year to date precipitation 8.49  
Snow  
Snow 0.00 in - - ()
Month to date snowfall  
Since 1 July snowfall  
Snow Depth -    
Sea Level Pressure  
Sea Level Pressure 29.58 in    
Wind  
Wind Speed 10 mph (West)    
Max Wind Speed 24 mph    
Max Gust Speed 36 mph    
Visibility 9 miles    
Events Snow    
T = Trace of Precipitation, MM = Missing Value Source: NWS Daily Summary

Daily Weather History Graph

Daily Weather History Graph

Search for Another Location

Airport:

Trip Planner

Search our weather history database for the weather conditions in past years. The results will help you decide how hot, cold, wet, or windy it might be!

Date:

Astronomy

Mar. 25, 2013 Rise Set
Actual Time 7:19 AM EDT 7:39 PM EDT
Civil Twilight 6:53 AM EDT 8:05 PM EDT
Nautical Twilight 6:22 AM EDT 8:36 PM EDT
Astronomical Twilight 5:52 AM EDT 9:07 PM EDT
Moon 6:11 PM EDT (3/25) 5:59 AM EDT (3/25)
Length of Visible Light 13h 12m
Length of Day
12h 20m
Waxing Gibbous, 96% of the Moon is Illuminated
Mar 25
Waxing Gibbous
Mar 27
Full
Apr 3
Last Quarter
Apr 10
New
Apr 18
First Quarter

Hourly Weather History & Observations

Time (EDT) Temp. Windchill Dew Point Humidity Pressure Visibility Wind Dir Wind Speed Gust Speed Precip Events Conditions
12:15 AM 32.0 °F 28.7 °F 30.2 °F 93% 29.55 in 2.0 mi South 3.5 mph - N/A Snow Light Snow
12:35 AM 32.0 °F 27.5 °F 30.2 °F 93% 29.53 in 10.0 mi South 4.6 mph - N/A Snow Light Snow
12:55 AM 32.0 °F 28.7 °F 30.2 °F 93% 29.53 in 10.0 mi South 3.5 mph - N/A   Overcast
1:15 AM 32.0 °F 28.7 °F 30.2 °F 93% 29.51 in 10.0 mi SSE 3.5 mph - N/A   Overcast
1:35 AM 32.0 °F 28.7 °F 30.2 °F 93% 29.50 in 10.0 mi SE 3.5 mph - N/A   Overcast
1:55 AM 32.0 °F 27.5 °F 30.2 °F 93% 29.50 in 10.0 mi SSE 4.6 mph - N/A   Overcast
2:15 AM 32.0 °F 28.7 °F 30.2 °F 93% 29.50 in 10.0 mi South 3.5 mph - N/A   Overcast
2:35 AM 32.0 °F 24.8 °F 30.2 °F 93% 29.52 in 10.0 mi SSW 8.1 mph - N/A   Overcast
2:55 AM 32.0 °F 28.7 °F 30.2 °F 93% 29.51 in 3.0 mi SSE 3.5 mph - N/A Snow Light Snow
3:15 AM 32.0 °F 28.7 °F 30.2 °F 93% 29.51 in 7.0 mi SSE 3.5 mph - N/A Snow Light Snow
3:35 AM 32.0 °F 26.4 °F 30.2 °F 93% 29.50 in 5.0 mi SSE 5.8 mph - N/A Snow Light Snow
3:55 AM 32.0 °F 27.5 °F 30.2 °F 93% 29.50 in 7.0 mi SSE 4.6 mph - N/A Snow Light Snow
4:15 AM 32.0 °F - 30.2 °F 93% 29.49 in 10.0 mi Calm Calm - N/A   Overcast
4:35 AM 32.0 °F 28.7 °F 30.2 °F 93% 29.49 in 10.0 mi South 3.5 mph - N/A   Overcast
4:55 AM 32.0 °F - 30.2 °F 93% 29.48 in 10.0 mi Calm Calm - N/A   Scattered Clouds
5:15 AM 30.2 °F 26.7 °F 30.2 °F 100% 29.48 in 10.0 mi SSW 3.5 mph - N/A   Scattered Clouds
5:35 AM 30.2 °F 26.7 °F 30.2 °F 100% 29.48 in 10.0 mi SW 3.5 mph - N/A   Scattered Clouds
5:55 AM 30.2 °F - 30.2 °F 100% 29.48 in 10.0 mi Calm Calm - N/A   Mostly Cloudy
6:15 AM 30.2 °F 25.4 °F 30.2 °F 100% 29.48 in 10.0 mi West 4.6 mph - N/A   Mostly Cloudy
6:35 AM 33.8 °F 27.7 °F 30.2 °F 87% 29.49 in 10.0 mi West 6.9 mph - N/A Snow Light Snow
6:55 AM 33.8 °F 26.4 °F 30.2 °F 87% 29.49 in 10.0 mi West 9.2 mph - N/A Snow Light Snow
7:15 AM 33.8 °F 24.3 °F 30.2 °F 87% 29.49 in 7.0 mi West 13.8 mph 17.3 mph N/A Snow Light Snow
7:35 AM 33.8 °F 24.8 °F 28.4 °F 81% 29.49 in 10.0 mi West 12.7 mph 25.3 mph N/A   Scattered Clouds
7:55 AM 33.8 °F 23.5 °F 28.4 °F 81% 29.50 in 10.0 mi West 16.1 mph 19.6 mph N/A   Scattered Clouds
8:15 AM 33.8 °F 24.8 °F 26.6 °F 75% 29.50 in 10.0 mi West 12.7 mph 18.4 mph N/A   Scattered Clouds
8:35 AM 32.0 °F 22.5 °F 26.6 °F 80% 29.51 in 10.0 mi West 12.7 mph 18.4 mph N/A   Scattered Clouds
8:55 AM 33.8 °F 25.8 °F 26.6 °F 75% 29.52 in 10.0 mi West 10.4 mph 24.2 mph N/A   Mostly Cloudy
9:15 AM 33.8 °F 25.8 °F 24.8 °F 70% 29.51 in 10.0 mi West 10.4 mph 20.7 mph N/A   Mostly Cloudy
9:35 AM 33.8 °F 23.5 °F 24.8 °F 70% 29.51 in 10.0 mi West 16.1 mph 29.9 mph N/A   Scattered Clouds
9:55 AM 33.8 °F 25.3 °F 24.8 °F 70% 29.51 in 10.0 mi West 11.5 mph 24.2 mph N/A   Clear
10:15 AM 35.6 °F 26.6 °F 24.8 °F 65% 29.52 in 10.0 mi West 13.8 mph 23.0 mph N/A   Scattered Clouds
10:35 AM 35.6 °F 25.2 °F 24.8 °F 65% 29.53 in 10.0 mi West 18.4 mph 27.6 mph N/A   Scattered Clouds
10:55 AM 33.8 °F 22.2 °F 23.0 °F 65% 29.53 in 10.0 mi West 20.7 mph 31.1 mph N/A   Scattered Clouds
11:15 AM 33.8 °F 23.2 °F 21.2 °F 60% 29.54 in 10.0 mi West 17.3 mph 28.8 mph N/A   Mostly Cloudy
11:35 AM 33.8 °F 23.9 °F 23.0 °F 65% 29.55 in 10.0 mi West 15.0 mph 32.2 mph N/A   Mostly Cloudy
11:55 AM 35.6 °F 24.2 °F 24.8 °F 65% 29.56 in 10.0 mi West 21.9 mph 29.9 mph N/A Snow Light Snow
12:15 PM 33.8 °F 23.2 °F 26.6 °F 75% 29.56 in 10.0 mi West 17.3 mph 25.3 mph N/A   Mostly Cloudy
12:35 PM 33.8 °F 23.2 °F 26.6 °F 75% 29.57 in 10.0 mi WNW 17.3 mph 25.3 mph N/A   Mostly Cloudy
12:55 PM 33.8 °F 22.8 °F 26.6 °F 75% 29.57 in 5.0 mi WNW 18.4 mph 31.1 mph N/A Snow Light Snow
1:15 PM 33.8 °F 23.9 °F 26.6 °F 75% 29.57 in 4.0 mi WNW 15.0 mph 26.5 mph N/A Snow Light Snow
1:35 PM 33.8 °F 23.5 °F 26.6 °F 75% 29.58 in 7.0 mi West 16.1 mph 27.6 mph N/A Snow Light Snow
1:55 PM 35.6 °F 25.9 °F 24.8 °F 65% 29.58 in 10.0 mi West 16.1 mph 25.3 mph N/A   Mostly Cloudy
2:15 PM 35.6 °F 25.5 °F 24.8 °F 65% 29.58 in 10.0 mi West 17.3 mph 29.9 mph N/A   Mostly Cloudy
2:35 PM 33.8 °F 23.2 °F 24.8 °F 70% 29.58 in - West 17.3 mph 21.9 mph N/A   Unknown
2:55 PM 35.6 °F 25.9 °F 24.8 °F 65% 29.58 in 10.0 mi West 16.1 mph 27.6 mph N/A   Mostly Cloudy
3:15 PM 35.6 °F 23.7 °F 24.8 °F 65% 29.58 in 10.0 mi WNW 24.2 mph 35.7 mph N/A   Mostly Cloudy
3:35 PM 35.6 °F 24.5 °F 23.0 °F 60% 29.58 in 10.0 mi WNW 20.7 mph 32.2 mph 0.01 in   Mostly Cloudy
3:55 PM 35.6 °F 26.2 °F 23.0 °F 60% 29.58 in 10.0 mi West 15.0 mph 25.3 mph N/A   Mostly Cloudy
4:15 PM 35.6 °F 24.2 °F 21.2 °F 56% 29.60 in 10.0 mi West 21.9 mph 29.9 mph N/A   Mostly Cloudy
4:35 PM 35.6 °F 25.5 °F 24.8 °F 65% 29.60 in 10.0 mi West 17.3 mph 29.9 mph N/A   Mostly Cloudy
4:55 PM 35.6 °F 24.5 °F 24.8 °F 65% 29.61 in 10.0 mi West 20.7 mph 27.6 mph N/A   Mostly Cloudy
5:15 PM 35.6 °F 24.8 °F 24.8 °F 65% 29.61 in 10.0 mi WNW 19.6 mph 27.6 mph N/A   Mostly Cloudy
5:35 PM 33.8 °F 23.5 °F 30.2 °F 87% 29.63 in 0.5 mi WNW 16.1 mph 28.8 mph N/A Snow Light Snow
5:55 PM 33.8 °F 23.5 °F 30.2 °F 87% 29.64 in 1.8 mi WNW 16.1 mph 24.2 mph N/A Snow Light Snow
6:15 PM 33.8 °F 22.8 °F 26.6 °F 75% 29.65 in 10.0 mi West 18.4 mph 33.4 mph N/A   Scattered Clouds
6:35 PM 33.8 °F 23.5 °F 26.6 °F 75% 29.66 in 10.0 mi West 16.1 mph 25.3 mph N/A   Mostly Cloudy
6:55 PM 33.8 °F 24.3 °F 26.6 °F 75% 29.66 in 10.0 mi WNW 13.8 mph 20.7 mph N/A   Overcast
7:15 PM 33.8 °F 22.2 °F 26.6 °F 75% 29.69 in 3.0 mi WNW 20.7 mph 26.5 mph N/A Snow Light Snow
7:35 PM 33.8 °F 25.8 °F 26.6 °F 75% 29.70 in 7.0 mi WNW 10.4 mph 28.8 mph N/A Snow Light Snow
7:55 PM 32.0 °F 23.6 °F 26.6 °F 80% 29.70 in 10.0 mi West 10.4 mph 25.3 mph N/A   Mostly Cloudy
8:15 PM 32.0 °F 22.1 °F 24.8 °F 75% 29.70 in 10.0 mi West 13.8 mph 26.5 mph N/A   Overcast
8:35 PM 32.0 °F 23.6 °F 26.6 °F 80% 29.72 in 7.0 mi WNW 10.4 mph 18.4 mph N/A Snow Light Snow
8:55 PM 32.0 °F 21.2 °F 26.6 °F 80% 29.72 in 10.0 mi West 16.1 mph 23.0 mph N/A   Mostly Cloudy
9:15 PM 32.0 °F 20.8 °F 26.6 °F 80% 29.74 in 10.0 mi WNW 17.3 mph 25.3 mph N/A   Scattered Clouds
9:35 PM 30.2 °F 17.4 °F 26.6 °F 86% 29.74 in 7.0 mi WNW 20.7 mph 26.5 mph N/A Snow Light Snow
9:55 PM 30.2 °F 18.5 °F 26.6 °F 86% 29.74 in 7.0 mi WNW 17.3 mph 28.8 mph N/A Snow Light Snow
10:15 PM 30.2 °F 19.8 °F 26.6 °F 86% 29.75 in 10.0 mi WNW 13.8 mph 20.7 mph N/A Snow Light Snow
10:35 PM 30.2 °F 18.9 °F 26.6 °F 86% 29.75 in 10.0 mi WNW 16.1 mph 27.6 mph N/A   Scattered Clouds
10:55 PM 30.2 °F 19.3 °F 26.6 °F 86% 29.75 in 10.0 mi WNW 15.0 mph 28.8 mph N/A   Scattered Clouds
11:15 PM 30.2 °F 18.9 °F 26.6 °F 86% 29.76 in 10.0 mi WNW 16.1 mph 34.5 mph N/A Snow Light Snow
11:35 PM 30.2 °F 19.8 °F 26.6 °F 86% 29.77 in 10.0 mi WNW 13.8 mph 26.5 mph N/A   Mostly Cloudy
11:55 PM 30.2 °F 18.9 °F 26.6 °F 86% 29.78 in 10.0 mi West 16.1 mph 25.3 mph N/A Snow Light Snow